Regional Weather Roundup
Issued by NWS

Home | Current Version | Previous Version | Graphics & Text | Print | Product List | Glossary On
Versions: 1 2 3 4 5 6 7 8 9 10 11 12 13 14 15 16 17 18 19 20 21 22 23 24 25 26 27 28 29 30 31 32 33 34 35 36 37 38 39 40 41 42 43 44 45 46 47 48 49 50
000
ASUS43 KDMX 290006
RWRIA

WEATHER ROUNDUP FOR IOWA
NATIONAL WEATHER SERVICE DES MOINES IA
700 PM CDT SUN MAY 28 2017

NOTE: "FAIR" INDICATES FEW OR NO CLOUDS BELOW 12,000 FEET WITH NO
SIGNIFICANT WEATHER AND/OR OBSTRUCTIONS TO VISIBILITY.

* - THESE STATIONS ARE NOT NWS STATIONS...THUS NOT UNDER NWS
QUALITY CONTROL.  THEY ALSO DO NOT REPORT WEATHER SUCH
AS PRECIPITATION OR FOG.

IAZ001>003-012>014-020>022-031>034-043>046-290100-
   NORTHWEST IOWA

CITY           SKY/WX    TMP DP  RH WIND       PRES   REMARKS
CARROLL *      SUNNY     77  41  27 NW21      29.85S
CHEROKEE *     MOSUNNY   73  37  27 NW17G25   29.84F
DENISON *      SUNNY     73  41  31 NW12G18   29.88F
LE MARS *      SUNNY     75  37  25 NW18G25   29.86S
ORANGE CITY *  SUNNY     73  43  33 NW17G25   29.85S
SHELDON *      SUNNY     75  36  23 W16G26    29.82S
SIOUX CITY     MOSUNNY   77  40  26 NW15      29.86S
6HR MIN TEMP:  74; 6HR MAX TEMP:  78;

SPENCER        SUNNY     73  39  29 NW15      29.82F
6HR MIN TEMP:  70; 6HR MAX TEMP:  76;

STORM LAKE *   SUNNY     73  37  27 NW20G28   29.85F
$$

IAZ055>058-069>071-079>083-090>094-290100-
   SOUTHWEST IOWA

CITY           SKY/WX    TMP DP  RH WIND       PRES   REMARKS
ATLANTIC *     SUNNY     73  45  35 NW18      29.88R
AUDUBON *      SUNNY     73  37  27 NW13G23   29.88S
CLARINDA *     SUNNY     79  39  24 NW20G26   29.89S
COUNCIL BLFS * SUNNY     75  41  29 N14G20    29.90S
CRESTON *      SUNNY     75  41  29 NW21G31   29.87S
HARLAN  *      SUNNY     73  41  31 NW20G28   29.92S
LAMONI         SUNNY     74  50  42 SW13      29.85F
6HR MIN TEMP:  74; 6HR MAX TEMP:  79;

RED OAK *      SUNNY     77  39  25 NW15G28   29.89R
SHENANDOAH *   SUNNY     79  39  24 NW12G20   29.89S
$$

IAZ047>049-059>061-072>074-084-290100-
   CENTRAL IOWA

CITY           SKY/WX    TMP DP  RH WIND       PRES   REMARKS
AMES           SUNNY     76  42  29 NW20G26   29.80S
6HR MIN TEMP:  74; 6HR MAX TEMP:  79;

ANKENY *       SUNNY     75  39  27 NW15G24   29.82R
BOONE *        SUNNY     73 -35   1 NW15G21   29.81S
CHARITON *     MOSUNNY   73  54  49 NW6       29.83S
DES MOINES     MOSUNNY   78  39  24 NW20G29   29.81R
6HR MIN TEMP:  76; 6HR MAX TEMP:  82; 6HR PCP: TRACE;

GRINNELL*      MOSUNNY   77  41  27 W18       29.81R
KNOXVILLE *    CLOUDY    75  50  41 SW10      29.80S
MARSHALLTOWN   SUNNY     74  44  34 NW15G24   29.78S
6HR MIN TEMP:  73; 6HR MAX TEMP:  78;

NEWTON *       SUNNY     77  39  25 NW15G25   29.79S
PELLA *        MOSUNNY   78  45  31 W9        29.81S
PERRY *          N/A     76  35  22 W20G28    29.83F
$$

IAZ004>006-015-016-023>025-035-036-290100-
   NORTH CENTRAL IOWA

CITY           SKY/WX    TMP DP  RH WIND       PRES   REMARKS
ALGONA *       MOSUNNY   73  37  27 NW20G30   29.81S
CLARION *      MOSUNNY   73  37  27 NW18G25   29.80S
ESTHERVILLE    MOSUNNY   72  37  28 NW25G33   29.80S
6HR MIN TEMP:  69; 6HR MAX TEMP:  74;

FORT DODGE *   SUNNY     72  39  30 W13G22    29.83S
MASON CITY     MOSUNNY   72  38  29 W22G29    29.79F
6HR MIN TEMP:  71; 6HR MAX TEMP:  76;

FOREST CITY *    N/A     73  19  13 NW18G30   29.79S
WEBSTER CITY * MOSUNNY   75  37  25 W22G29    29.79S
IOWA FALLS *     N/A     75  40  27 W22G29    29.80S
$$

IAZ007>011-017>019-026>030-037>042-050>054-066-290100-
   NORTHEAST IOWA

CITY           SKY/WX    TMP DP  RH WIND       PRES   REMARKS
CEDAR RAPIDS   MOSUNNY   73  49  42 W14G29    29.76F
6HR MIN TEMP:  72; 6HR MAX TEMP:  77;

CHARLES CITY * MOSUNNY   73  37  27 W17G25    29.77S
CLINTON *      MOSUNNY   75  50  41 W16       29.77S
DECORAH *      SUNNY     72  41  33 NW7G24    29.74F
DUBUQUE        PTSUNNY   70  47  43 NW8       29.76S
6HR MIN TEMP:  70; 6HR MAX TEMP:  75;

MONTICELLO *   PTSUNNY   75  45  33 MISG      29.76R
OELWEIN *      SUNNY     75  43  31 NW16G23   29.77S
WATERLOO       SUNNY     75  39  27 W16G25    29.75F
6HR MIN TEMP:  74; 6HR MAX TEMP:  78;

$$

IAZ064-065-067-068-078-290100-
   EAST CENTRAL IOWA

CITY           SKY/WX    TMP DP  RH WIND       PRES   REMARKS
DAVENPORT      MOSUNNY   76  47  35 W16       29.78F
6HR MIN TEMP:  73; 6HR MAX TEMP:  78;

IOWA CITY      MOSUNNY   75  52  44 W7        29.79F
6HR MIN TEMP:  74; 6HR MAX TEMP:  79;

MT. PLEASANT * MOSUNNY   76  43  30 W7        29.80F
MUSCATINE *    MOSUNNY   77  48  36 W12G20    29.79S
QUAD CITIES    SUNNY     76  48  37 W12       29.78S
6HR MIN TEMP:  75; 6HR MAX TEMP:  80;

$$

IAZ062-063-075>077-085>089-095>099-290100-
   SOUTHEAST IOWA

CITY           SKY/WX    TMP DP  RH WIND       PRES   REMARKS
BURLINGTON     SUNNY     77  48  35 W7        29.81S
6HR MIN TEMP:  75; 6HR MAX TEMP:  79;

FAIRFIELD *    PTSUNNY   75  48  38 W8        29.81S
FORT MADISON * SUNNY     79  46  31 W8        29.82F
KEOKUK *       SUNNY     77  46  33 W9        29.82S
OSKALOOSA *      N/A     77  46  32 W18       29.81S
CENTERVILLE *    N/A     75  46  35 W10       29.85S
OTTUMWA        CLOUDY    77  48  35 W9        29.81S
6HR MIN TEMP:  73; 6HR MAX TEMP:  79;

WASHINGTON *   PTSUNNY   75  50  41 W7G15     29.81S
$$

ABBREVIATIONS USED IN REMARKS
   TC - TEMPERATURES IN CELSIUS
  WCI - WIND CHILL INDEX
   HX - HEAT INDEX
  VSB - VISIBILITY
$$




USA.gov is the U.S. government's official web portal to all federal, state and local government web resources and services.